THY71C LTFJ-EDDV

Flight info

Callsign THY71C
Flight time N/A
Altitude 36000
Route TUDBU1J/06L TUDBU DCT NAVOD DCT MOPUG DCT ZOLKU DCT BEGLA DCT DEXIT DCT AKOSI DCT LASGA M726 LASTO/N0450F300 M852 BIRKA/N0412F240 T803 GITEX GITEX4R
Aircraft A320/M-SDE3FGHIRWY/LB1

Departure

Time 2026-04-30 14:58
Airport Istanbul Sabiha Gökçen International Airport (LTFJ)

Arrival

Time N/A
Airport Hannover Airport (EDDV)
Time Latitude Longitude Altitude Speed Heading
2026-04-30 14:26 40.90549 29.31390 310 ft 0 kts 336°
2026-04-30 14:46 40.90546 29.31392 310 ft 3 kts 336°
2026-04-30 14:46 40.90521 29.31407 310 ft 4 kts 335°
2026-04-30 14:46 40.90497 29.31423 309 ft 4 kts 332°
2026-04-30 14:47 40.90474 29.31441 309 ft 4 kts 317°
2026-04-30 14:47 40.90461 29.31465 309 ft 4 kts 259°
2026-04-30 14:47 40.90462 29.31471 310 ft 1 kts 245°
2026-04-30 14:51 40.90461 29.31471 310 ft 1 kts 245°
2026-04-30 14:51 40.90402 29.31313 310 ft 15 kts 245°
2026-04-30 14:52 40.90356 29.31186 309 ft 16 kts 242°
2026-04-30 14:52 40.90251 29.30903 309 ft 13 kts 237°
2026-04-30 14:52 40.90173 29.30899 310 ft 13 kts 155°
2026-04-30 14:53 40.90032 29.30830 308 ft 14 kts 244°
2026-04-30 14:53 40.89986 29.30704 310 ft 16 kts 244°
2026-04-30 14:54 40.89842 29.30320 307 ft 26 kts 243°
2026-04-30 14:54 40.89673 29.29857 305 ft 30 kts 244°
2026-04-30 14:55 40.89487 29.29353 305 ft 28 kts 243°
2026-04-30 14:55 40.89382 29.29267 303 ft 12 kts 157°
2026-04-30 14:55 40.89342 29.29289 303 ft 0 kts 155°
2026-04-30 14:56 40.89339 29.29290 306 ft 2 kts 155°
2026-04-30 14:56 40.89293 29.29396 304 ft 0 kts 64°
2026-04-30 14:57 40.89301 29.29419 305 ft 10 kts 64°
2026-04-30 14:57 40.89724 29.30561 309 ft 121 kts 64°
2026-04-30 14:58 40.90609 29.33039 831 ft 157 kts 63°
2026-04-30 14:58 40.91069 29.34342 1509 ft 153 kts 64°
2026-04-30 14:58 40.92019 29.36953 2417 ft 170 kts 63°
2026-04-30 14:59 40.93192 29.40021 3247 ft 204 kts 63°
2026-04-30 15:00 40.95113 29.45271 4926 ft 220 kts 63°
2026-04-30 15:00 40.96458 29.48993 6102 ft 227 kts 63°
2026-04-30 15:01 40.97854 29.52782 7235 ft 232 kts 63°
2026-04-30 15:01 40.98337 29.54086 7625 ft 233 kts 63°
2026-04-30 15:01 41.00066 29.58747 8603 ft 260 kts 63°
2026-04-30 15:02 41.00880 29.60939 9136 ft 269 kts 63°
2026-04-30 15:02 41.01706 29.63176 9798 ft 273 kts 63°
2026-04-30 15:03 41.04318 29.70195 11279 ft 303 kts 63°
2026-04-30 15:03 41.06295 29.75465 11934 ft 336 kts 63°
2026-04-30 15:04 41.08474 29.81288 12498 ft 369 kts 62°
2026-04-30 15:04 41.13640 29.86927 13974 ft 371 kts